Погода в Пегуэре

Испания     39°32′14″N   2°26′38″E
В апреле 2022 года жителям России запретили посещать сайт meteo.paraplan.net по решению Генеральной прокуратуры. Аудитория сайта уменьшилась в 10 раз. Владельцы сайта не видят смысла в поддержке погодного сервера в таких условиях. Сайт будет закрыт в октябре.
темп.,
°C
ветер,
м/с
пор.,
м/с
влажн.,
%
обл.,
%
осадки,
мм/ч
давл.,
гПа
погр.,
м
4 октября, вт
вт423:00+22юв2372100 0.0 1020339
02:00+21ююв2376100 0.1 1020381
05:00+20всв2279100 0.0 1018171
08:00+20св2277100 0.0 1019120
11:00+23св2267100 0.0 1020401
14:00+24ююз3264100 0.0 1020824
17:00+24сз1163100 0.0 1020692
20:00+23в12683 0.0 1020318
5 октября, ср
ср523:00+22вюв33743 0.0 1022328
02:00+20всв33730 0.0 1022165
05:00+20всв22725 0.0 1021143
08:00+20св227424 0.0 1022128
11:00+23в336631 0.0 1022581
14:00+25ююв345111 0.0 1022934
17:00+24юз226216 0.0 1022749
20:00+22сз11689 0.0 1023329
6 октября, чт
чт623:00+22в2272100 0.0 1024306
02:00+21всв327666 0.0 1024218
05:00+20ссв337848 0.0 1023157
08:00+19св458193 0.0 1024301
11:00+23всв566259 0.0 10251016
14:00+25вюв345679 0.3 10241148
17:00+23вюв6769100 2.8 1023920
20:00+22всв6877100 6.7 1024672
7 октября, пт
пт723:00+21всв688072 0.1 1025513
02:00+20всв57837 0.1 1024349
05:00+20св468513 0.5 1022282
08:00+20св458345 0.7 1022248
11:00+22всв677179 0.4 1022491
14:00+25всв45585 0.4 1021954
17:00+24ю226148 0.8 1019363
20:00+23юв33705 1.2 1020349
8 октября, сб
сб823:00+21всв44775 0.0 1021195
02:00+21всв347541 0.0 1020137
05:00+21св337369 0.0 1020120
08:00+20св337397 0.0 1019123
11:00+24всв3363100 0.0 1021565
14:00+26юз125626 0.0 1020943
17:00+24сз2266100 0.3 1019464
20:00+23ююв227269 0.3 1019172